Find EUTELSAT 36D

NORAD ID: 59346 Int'l Des: 2024-059 Owner: EUTSA Country: F operational
HEOCIRCULARGSOGEO

当前视图

正在加载3D地球...

关于 EUTELSAT 36D

正在加载描述...

即将过境

Passes for default location (London). Set your location on the main map for personalized predictions.

高度历史

Loading altitude history...

两行轨道根数

1 59346U 24059A 26149.58334818 .00000000 00000-0 00000-0 0 9999
2 59346 0.0194 342.6319 0000481 138.3560 11.9878 1.00271447 7962
Epoch: May 29, 2026 • Age: 11 hours

当前状态

高度 35788.1 km
速度 3.07 km/s
星下点 -0.02°S, 35.85°E
发射日期 Mar 30, 2024
运行时间 2.1 years
类型 other

技术详情

分类 Payload
质量 5000.00 kg
干质量 5000.00 kg
总质量 5000.00 kg
长度 8.00 m
直径 3.00 m
跨度 40.00 m
形状 Box + 2 Pan
制造商 ADST/ADSUK
平台类型 Eurostar NEO
阶段状态 In Orbit
所有者/国家 EUTSA/F

Most Searched